When you browse on this site, cookies collect data to enhance your experience and personalize the content and advertising you see.
Visit our Privacy Policy to learn more. By continuing to use the site, you agree to this use of cookies and data.

Hourly Weather Florianópolis

Today, 24 September, Thursday

Time Temperature Precipitation Wind Pressure Humidity
00:00 +18°C° 0 mm 2 mps 767 mmHg 90%
01:00 +18°C° 0 mm 2 mps 767 mmHg 90%
02:00 +19°C° 0 mm 2 mps 767 mmHg 90%
03:00 +18°C° 0 mm 2 mps 766 mmHg 91%
04:00 +18°C° 0 mm 2 mps 766 mmHg 92%
05:00 +18°C° 0 mm 2 mps 766 mmHg 93%
06:00 +18°C° 0 mm 2 mps 766 mmHg 94%
07:00 +19°C° 0 mm 2 mps 766 mmHg 85%
08:00 +21°C° 0 mm 2 mps 767 mmHg 76%
09:00 +24°C° 0 mm 3 mps 767 mmHg 67%
10:00 +26°C° 0 mm 3 mps 766 mmHg 62%
11:00 +27°C° 0 mm 3 mps 766 mmHg 57%
12:00 +28°C° 0 mm 4 mps 765 mmHg 52%
13:00 +28°C° 0 mm 4 mps 765 mmHg 54%
14:00 +28°C° 0 mm 4 mps 764 mmHg 56%
15:00 +27°C° 0 mm 5 mps 764 mmHg 59%
16:00 +26°C° 0 mm 4 mps 764 mmHg 68%
17:00 +24°C° 0 mm 3 mps 764 mmHg 77%
18:00 +21°C° 0 mm 2 mps 763 mmHg 86%
19:00 +21°C° 0 mm 2 mps 764 mmHg 89%
20:00 +20°C° 0 mm 2 mps 765 mmHg 91%
21:00 +19°C° 0 mm 2 mps 765 mmHg 94%
22:00 +20°C° 0 mm 1 mps 765 mmHg 94%
23:00 +20°C° 0 mm 1 mps 765 mmHg 94%

Tomorrow, 25 September, Friday

Time Temperature Precipitation Wind Pressure Humidity
00:00 +20°C° 0 mm 1 mps 765 mmHg 93%
01:00 +20°C° 0 mm 1 mps 764 mmHg 93%
02:00 +21°C° 0 mm 1 mps 764 mmHg 92%
03:00 +21°C° 0 mm 1 mps 764 mmHg 92%
04:00 +20°C° 0 mm 1 mps 764 mmHg 92%
05:00 +19°C° 0 mm 2 mps 764 mmHg 93%
06:00 +19°C° 0 mm 2 mps 764 mmHg 94%
07:00 +21°C° 0 mm 2 mps 764 mmHg 84%
08:00 +24°C° 0 mm 2 mps 765 mmHg 74%
09:00 +25°C° 0 mm 2 mps 765 mmHg 65%
10:00 +27°C° 0 mm 3 mps 764 mmHg 59%
11:00 +28°C° 0 mm 3 mps 763 mmHg 54%
12:00 +30°C° 0 mm 4 mps 763 mmHg 48%
13:00 +29°C° 0 mm 4 mps 762 mmHg 50%
14:00 +29°C° 0 mm 4 mps 761 mmHg 53%
15:00 +29°C° 0 mm 4 mps 761 mmHg 55%
16:00 +27°C° 0 mm 4 mps 761 mmHg 64%
17:00 +25°C° 0 mm 3 mps 761 mmHg 72%
18:00 +22°C° 0 mm 3 mps 761 mmHg 81%
19:00 +23°C° 0 mm 2 mps 761 mmHg 85%
20:00 +21°C° 0 mm 2 mps 761 mmHg 89%
21:00 +20°C° 0 mm 2 mps 762 mmHg 93%
22:00 +20°C° 0 mm 2 mps 762 mmHg 93%
23:00 +20°C° 0 mm 2 mps 762 mmHg 94%

Day after tomorrow, 26 September, Saturday

Time Temperature Precipitation Wind Pressure Humidity
00:00 +20°C° 0 mm 1 mps 761 mmHg 94%
01:00 +21°C° 0 mm 1 mps 761 mmHg 93%
02:00 +21°C° 0 mm 1 mps 761 mmHg 91%
03:00 +21°C° 0 mm 1 mps 760 mmHg 90%
04:00 +21°C° 0 mm 1 mps 760 mmHg 89%
05:00 +21°C° 0 mm 1 mps 760 mmHg 89%
06:00 +22°C° 0 mm 1 mps 760 mmHg 88%
07:00 +23°C° 0 mm 2 mps 760 mmHg 83%
08:00 +24°C° 0 mm 2 mps 760 mmHg 77%
09:00 +25°C° 0 mm 2 mps 760 mmHg 72%
10:00 +26°C° 0 mm 3 mps 760 mmHg 68%
11:00 +27°C° 0 mm 3 mps 759 mmHg 64%
12:00 +29°C° 0 mm 4 mps 759 mmHg 60%
13:00 +28°C° 0 mm 4 mps 758 mmHg 62%
14:00 +28°C° 0 mm 4 mps 757 mmHg 64%
15:00 +28°C° 0 mm 4 mps 756 mmHg 66%
16:00 +27°C° 0 mm 4 mps 756 mmHg 73%
17:00 +25°C° 0 mm 4 mps 756 mmHg 80%
18:00 +22°C° 0 mm 3 mps 756 mmHg 87%
19:00 +23°C° 0 mm 2 mps 757 mmHg 88%
20:00 +23°C° 0 mm 2 mps 757 mmHg 89%
21:00 +23°C° 0 mm 1 mps 758 mmHg 90%
22:00 +23°C° 0 mm 1 mps 758 mmHg 90%
23:00 +23°C° 0 mm 1 mps 758 mmHg 90%

27 September, Sunday

Time Temperature Precipitation Wind Pressure Humidity
00:00 +23°C° 0 mm 1 mps 758 mmHg 90%
01:00 +23°C° 0 mm 1 mps 757 mmHg 91%
02:00 +23°C° 0 mm 1 mps 757 mmHg 93%
03:00 +22°C° 0 mm 1 mps 756 mmHg 94%
04:00 +22°C° 0 mm 1 mps 756 mmHg 94%
05:00 +23°C° 0 mm 2 mps 756 mmHg 94%
06:00 +23°C° 0 mm 2 mps 756 mmHg 94%
07:00 +24°C° 0 mm 2 mps 756 mmHg 88%
08:00 +25°C° 0 mm 3 mps 756 mmHg 82%
09:00 +26°C° 0 mm 4 mps 756 mmHg 77%
10:00 +27°C° 0 mm 4 mps 756 mmHg 72%
11:00 +28°C° 0 mm 4 mps 755 mmHg 67%
12:00 +30°C° 0 mm 5 mps 755 mmHg 62%
13:00 +32°C° 0 mm 4 mps 754 mmHg 59%
14:00 +31°C° 0 mm 3 mps 754 mmHg 56%
15:00 +33°C° 0 mm 3 mps 754 mmHg 53%
16:00 +30°C° 0 mm 2 mps 754 mmHg 62%
17:00 +28°C° 0 mm 2 mps 754 mmHg 72%
18:00 +25°C° 0 mm 1 mps 754 mmHg 81%
19:00 +25°C° 0 mm 1 mps 754 mmHg 82%
20:00 +24°C° 0 mm 1 mps 755 mmHg 84%
21:00 +24°C° 0 mm 1 mps 755 mmHg 85%
22:00 +24°C° 0 mm 1 mps 755 mmHg 86%
23:00 +24°C° 0 mm 1 mps 755 mmHg 88%

28 September, Monday

Time Temperature Precipitation Wind Pressure Humidity
00:00 +23°C° 0 mm 1 mps 755 mmHg 90%
01:00 +23°C° 0.1 mm 1 mps 755 mmHg 90%
02:00 +23°C° 0.1 mm 1 mps 754 mmHg 89%
03:00 +23°C° 0.1 mm 1 mps 754 mmHg 89%
04:00 +23°C° 0.2 mm 2 mps 755 mmHg 91%
05:00 +21°C° 0.2 mm 4 mps 755 mmHg 92%
06:00 +21°C° 0.2 mm 5 mps 756 mmHg 94%
07:00 +21°C° 0.6 mm 5 mps 757 mmHg 93%
08:00 +21°C° 0.6 mm 5 mps 757 mmHg 93%
09:00 +21°C° 0.6 mm 5 mps 758 mmHg 93%
10:00 +20°C° 0.2 mm 5 mps 758 mmHg 92%
11:00 +19°C° 0.2 mm 5 mps 758 mmHg 91%
12:00 +19°C° 0.2 mm 5 mps 758 mmHg 91%
13:00 +19°C° 0 mm 5 mps 758 mmHg 86%
14:00 +20°C° 0 mm 5 mps 758 mmHg 81%
15:00 +21°C° 0 mm 5 mps 758 mmHg 76%
16:00 +20°C° 0 mm 5 mps 758 mmHg 76%
17:00 +20°C° 0 mm 5 mps 759 mmHg 76%
18:00 +19°C° 0 mm 5 mps 759 mmHg 77%
19:00 +19°C° 0 mm 5 mps 760 mmHg 78%
20:00 +18°C° 0 mm 4 mps 761 mmHg 79%
21:00 +18°C° 0 mm 4 mps 761 mmHg 80%
22:00 +17°C° 0 mm 3 mps 762 mmHg 79%
23:00 +17°C° 0 mm 3 mps 762 mmHg 78%

29 September, Tuesday

Time Temperature Precipitation Wind Pressure Humidity
00:00 +17°C° 0 mm 3 mps 762 mmHg 77%
01:00 +17°C° 0 mm 2 mps 762 mmHg 76%
02:00 +17°C° 0 mm 2 mps 762 mmHg 74%
03:00 +18°C° 0 mm 1 mps 761 mmHg 73%
04:00 +18°C° 0 mm 1 mps 762 mmHg 74%
05:00 +18°C° 0 mm 1 mps 762 mmHg 75%
06:00 +15°C° 0 mm 0 mps 762 mmHg 76%
07:00 +19°C° 0 mm 1 mps 762 mmHg 70%
08:00 +20°C° 0 mm 1 mps 763 mmHg 63%
09:00 +21°C° 0 mm 1 mps 763 mmHg 57%
10:00 +23°C° 0 mm 2 mps 763 mmHg 55%
11:00 +24°C° 0 mm 2 mps 762 mmHg 54%
12:00 +25°C° 0 mm 3 mps 762 mmHg 53%
13:00 +25°C° 0 mm 3 mps 761 mmHg 56%
14:00 +23°C° 0 mm 4 mps 761 mmHg 59%
15:00 +23°C° 0 mm 4 mps 760 mmHg 63%
16:00 +22°C° 0 mm 4 mps 760 mmHg 69%
17:00 +21°C° 0 mm 4 mps 760 mmHg 74%
18:00 +20°C° 0 mm 4 mps 760 mmHg 80%
19:00 +20°C° 0 mm 3 mps 760 mmHg 82%
20:00 +20°C° 0 mm 3 mps 761 mmHg 84%
21:00 +20°C° 0 mm 3 mps 761 mmHg 85%
22:00 +19°C° 0.1 mm 3 mps 761 mmHg 87%
23:00 +19°C° 0.1 mm 3 mps 761 mmHg 88%
Show more